Regional Weather Roundup
Issued by NWS Portland, ME

Current Version | Previous Version | Text Only | Print | Product List | Glossary On
Versions: 1 2 3 4 5 6 7 8 9 10 11 12 13 14 15 16 17 18 19 20 21 22 23 24 25 26 27 28 29 30 31 32 33 34 35 36 37 38 39 40 41 42 43 44 45 46 47 48 49 50
000
ASUS41 KGYX 062110
RWRGYX
WEATHER ROUNDUP FOR MAINE AND NEW HAMPSHIRE
NATIONAL WEATHER SERVICE GRAY ME
500 PM EDT THU MAY 06 2021

MEZ002-005-006-010-012-015-018-020-021-024-026-027-029-062200-
MAINE

CITY           SKY/WX    TMP DP  RH WIND       PRES   REMARKS
PORTLAND       MOSUNNY   61  32  33 N16G22    29.81R
SANFORD        SUNNY     62  29  28 N15       29.81R
BAR HARBOR     CLOUDY    54  38  54 NW12G24   29.78R
WISCASSET      SUNNY     60  33  36 NW8       29.82R
ROCKLAND       SUNNY     58  37  45 NW10G22   29.79R
FRYEBURG       SUNNY     59  27  29 NW7G17    29.83R
LEWISTONAUBURN SUNNY     57  30  35 N15G22    29.82R
AUGUSTA        SUNNY     56  31  38 NW21G29   29.82R
WATERVILLE     MOSUNNY   56  35  45 NW14G20   29.79R
BANGOR         CLOUDY    52  38  58 NW20G26   29.80R
GREENVILLE       N/A     46  34  62 NW17G25   29.78R
MILLINOCKET    CLOUDY    51  42  71 W8        29.79R
HOULTON        CLOUDY    49  38  65 NW10      29.74R
PRESQUE ISLE   CLOUDY    47  39  74 NW13G23   29.76R
FRENCHVILLE    CLOUDY    44  36  73 NW14G24   29.75R
CARIBOU        CLOUDY    47  39  74 NW12      29.74R
$$

NHZ002-005-008-009-011-012-014-062200-
NEW HAMPSHIRE

CITY           SKY/WX    TMP DP  RH WIND       PRES   REMARKS
PORTSMOUTH     SUNNY     63  24  23 NW15G24   29.82R
ROCHESTER      SUNNY     61  28  28 NW20      29.81S
NASHUA         SUNNY     63  27  25 N12G21    29.85R
MANCHESTER     MOSUNNY   63  23  21 NW13G25   29.83R
CONCORD        SUNNY     61  26  26 NW13G23   29.84S
LACONIA        SUNNY     58  27  30 N13       29.84S
PLYMOUTH       FAIR      58  25  28 NW15G22   29.85R
BERLIN         MOSUNNY   56  28  34 NW9G20    29.84S
WHITEFIELD     MOSUNNY   53  27  36 NW15G23   29.86S
JAFFREY        SUNNY     59  25  27 NW7G16    29.86R
KEENE          MOSUNNY   60  31  33 N12G18    29.87R
LEBANON        SUNNY     60  25  26 NW15G26   29.87S
MT WASHINGTON  PTSUNNY   25  19  80 NW59G66     N/A  WCI   3
$$

VTZ005-007-008-062200-
VERMONT

CITY           SKY/WX    TMP DP  RH WIND       PRES   REMARKS
ST JOHNSBURY     N/A     56  25  30 MISG      29.86S
MONTPELIER     SUNNY     52  26  36 NW14      29.93R
BURLINGTON     MOSUNNY   59  25  27 NW15G24   29.91S
$$

MAZ007-012-024-CTZ003-RIZ002-NYZ038-NYZ072-062200-
SOUTHERN NEW ENGLAND AND NY

CITY           SKY/WX    TMP DP  RH WIND       PRES   REMARKS
BOSTON         MOSUNNY   66  30  26 NW10      29.83R
WORCESTER      SUNNY     61  30  31 W9G18     29.86R
NANTUCKET      SUNNY     59  45  59 SW12      29.86R
PROVIDENCE     MOSUNNY   66  33  29 N9        29.85R
HARTFORD       MOSUNNY   64  31  28 NW15      29.87R
ALBANY         MOSUNNY   58  30  34 W14       29.90S
NEW YORK CITY  PTSUNNY   65  29  25 NW14      29.88F
$$

ANZ081-ANZ082-ANZ150-NHZ014-MEZ023>029-062200-
COASTAL MARINE OBSERVATIONS

STATION/POSITION TIME  TEMP    WIND        PRES    WAVE
                       AIR SEA DIR/SP/G            HT/PER
                 (UTC) (F)     (DEG/KT/KT) (MB)    (FT/S)
MOUNT DESERT ROC 2100          320/  7/  8 1008.0R
ISLE OF SHOALS   2100   58     340/ 19/ 20 1009.1R
JEFFREYS LEDGE   2056      47                N/A     2/ 4
CASHES LEDGE BUO 2050   50 46              1009.4R   3/ 4
$$

.............KEY..............
   WCI - WIND CHILL
   TC  - TEMPERATURE IN CELSIUS
   VSB - VISIBILITY IN MILES
   HX  - HEAT INDEX
   FAIR- INDICATES FEW OR NO CLOUDS BELOW 12,000 FT, WITH NO
         SIGNIFICANT WEATHER AND/OR OBSTRUCTIONS TO VISIBILITY.





USA.gov is the U.S. government's official web portal to all federal, state and local government web resources and services.